TimeCDT,TemperatureF,Dew PointF,Humidity,Sea Level PressureIn,VisibilityMPH,Wind Direction,Wind SpeedMPH,Gust SpeedMPH,PrecipitationIn,Events,Conditions,WindDirDegrees,DateUTC
12:53 AM,64.9,60.1,84,29.95,10.0,Calm,Calm,-,N/A,,Overcast,0,2012-10-22 05:53:00
1:53 AM,66.9,59.0,76,29.95,10.0,SSE,4.6,-,N/A,,Overcast,150,2012-10-22 06:53:00
2:30 AM,66.2,57.2,73,29.96,10.0,SSE,5.8,-,N/A,,Overcast,150,2012-10-22 07:30:00
2:53 AM,64.9,57.9,78,29.95,10.0,SSE,6.9,-,N/A,,Mostly Cloudy,150,2012-10-22 07:53:00
3:53 AM,66.0,57.0,73,29.93,10.0,SSE,5.8,-,N/A,,Scattered Clouds,160,2012-10-22 08:53:00
4:53 AM,66.0,54.0,65,29.93,10.0,SSE,5.8,-,N/A,,Mostly Cloudy,150,2012-10-22 09:53:00
5:53 AM,64.9,52.0,63,29.94,10.0,SSE,6.9,-,N/A,,Scattered Clouds,160,2012-10-22 10:53:00
6:53 AM,64.0,52.0,65,29.94,10.0,SSE,8.1,-,N/A,,Scattered Clouds,160,2012-10-22 11:53:00
8:53 AM,62.1,55.9,80,-9999,6.0,South,4.6,-,0.02,Rain-Thunderstorm,Thunderstorms and Rain,170,2012-10-22 13:53:00
9:06 AM,60.8,57.2,88,-9999,1.8,South,6.9,-,0.13,Rain-Thunderstorm,Heavy Thunderstorms and Rain,170,2012-10-22 14:06:00
9:15 AM,60.8,57.2,88,-9999,5.0,SE,4.6,-,0.26,Rain-Thunderstorm,Thunderstorms and Rain,130,2012-10-22 14:15:00
9:53 AM,63.0,57.9,84,29.93,10.0,SSE,6.9,-,0.27,,Overcast,160,2012-10-22 14:53:00
10:53 AM,73.0,60.1,64,29.92,10.0,South,8.1,-,N/A,,Mostly Cloudy,180,2012-10-22 15:53:00
12:04 PM,69.8,64.4,83,29.92,1.8,Calm,Calm,-,0.07,Rain,Heavy Rain,0,2012-10-22 17:04:00
12:14 PM,69.8,64.4,83,29.92,7.0,Calm,Calm,-,0.18,Thunderstorm,Overcast,0,2012-10-22 17:14:00
2:53 PM,68.0,64.9,90,29.91,10.0,ENE,6.9,-,0.01,Thunderstorm,Overcast,70,2012-10-22 19:53:00
3:53 PM,69.1,64.9,87,29.91,10.0,East,5.8,-,N/A,,Overcast,90,2012-10-22 20:53:00
4:53 PM,70.0,64.9,84,29.91,10.0,SE,4.6,-,N/A,,Overcast,130,2012-10-22 21:53:00
6:53 PM,73.9,60.1,62,29.91,10.0,South,9.2,-,N/A,,Partly Cloudy,170,2012-10-22 23:53:00
7:53 PM,73.9,60.1,62,29.92,10.0,South,8.1,-,N/A,,Clear,170,2012-10-23 00:53:00
8:53 PM,73.9,61.0,64,29.94,10.0,South,5.8,-,N/A,,Clear,190,2012-10-23 01:53:00
9:53 PM,73.0,61.0,66,29.94,10.0,South,6.9,-,N/A,,Clear,190,2012-10-23 02:53:00
10:53 PM,72.0,60.1,66,29.94,10.0,South,6.9,-,N/A,,Clear,180,2012-10-23 03:53:00